CZ-3C DEB, 39339

Orbit data source: Space-Track

CZ-3C DEB, 39339 is space debris in HEO originally from a launch on Sun, 31 Oct 2010 UTC launched from the Xichang Space Center, China (XSC). Debris objects in space refer to the collection of defunct objects orbiting the Earth. Examples of debris include non-operational satellites, rocket bodies, and fragments generated from explosions, collisions, or faulty payload assembly.

Loading next visibility...
Identifier
39339, 2010-057D
Orbit
HEO
Country
Flag of CNCN / PRC
Related business
Manufacturer
CALT
Mission
Spacecraft
Bus & Motor
Unknown
Mass
Unknown
Launch date (UTC)
2010-10-31 (15 years ago)
Launch vehicle
Unknown
Launch site
Xichang Space Center, China (XSC)
Object type
Payload
Rocket body
Debris
Shape & HBR
Unknown shape, 0.3 m
Radar Cross Section
Medium (>0.1 m² and <1 m²)

Expand to show TLE details & history
Last TLE update: 6 days ago

TLE from 6 days ago
0 CZ-3C DEB
1 39339U 10057D   26062.93076145  .00000114  00000-0  89814-2 0  9999
2 39339  21.3385 293.1243 7173286 143.5758 356.8563  2.14535372 97051
Epoch: 2026-03-03T22:20Z
TLE epoch observation values (Epoch: 2026-03-03T22:20:17.789Z)
Latitude
19.00263°
Longitude
-85.05877°
Altitude
1,163.502 km
Speed
9.488 km/s
True Right ascension
03h 26m 52s
True Declination
18° 54' 10"
Sunlit
Object was in daylight at epoch
Visualization orbit readout
Latitude
Unknown
Longitude
Unknown
Altitude
Unknown
Speed
Unknown
Apparent Right ascension
Unknown
Apparent Declination
Unknown
Sunlit
N/A
Visualization observer readout
Local Sidereal Time
17:04:50
Azimuth
Unknown
Elevation
Unknown
Doppler factor
Unknown
Orbital elements
Apogee altitude
37,239.271 km
Perigee altitude
801.266 km
Semi-major axis
25,398.405 km
Eccentricity
0.71733
Inclination
21.3385°
RAAN
293.1243°
Arg. of periapsis
143.5758°
True anomaly
333.40945°
Mean anomaly
356.8563°
Eccentric anomaly
349.04756°
Mean motion
0.53621 °/min
Orbital period
671.38 mins
BSTAR
0.0089814
Loading maneuver chart data...
Computing Atmospheric mass density...
Loading historical data...
Loading historical data...
Loading historical data...
Loading historical data...
Loading historical data...
Loading historical data...
Loading historical data...

Documentation

Showing up to 5 results
|